Time,TemperatureF,DewpointF,PressureIn,WindDirection,WindDirectionDegrees,WindSpeedMPH,WindSpeedGustMPH,Humidity,HourlyPrecipIn,Conditions,Clouds,dailyrainin,SoftwareType,DateUTC
2013-05-30 00:00:00,75.7,63.5,30.10,WSW,238,3.0,8.0,66,0.00,,---,0.00,VWS V14.01,2013-05-30 04:00:00,
2013-05-30 00:01:00,75.7,64.0,30.10,WNW,288,2.0,4.0,67,0.00,,---,0.00,VWS V14.01,2013-05-30 04:01:00,
2013-05-30 00:02:00,75.6,63.5,30.10,West,271,5.0,6.0,66,0.00,,---,0.00,VWS V14.01,2013-05-30 04:02:00,
2013-05-30 00:07:00,75.4,63.7,30.10,WNW,288,4.0,6.0,67,0.00,,---,0.00,VWS V14.01,2013-05-30 04:07:00,
2013-05-30 00:10:00,75.3,63.6,30.09,West,277,2.0,6.0,67,0.00,,---,0.00,VWS V14.01,2013-05-30 04:10:00,
2013-05-30 00:12:00,75.2,63.5,30.10,West,278,2.0,6.0,67,0.00,,---,0.00,VWS V14.01,2013-05-30 04:12:00,
2013-05-30 00:17:00,75.2,63.5,30.10,SSE,166,3.0,9.0,67,0.00,,---,0.00,VWS V14.01,2013-05-30 04:17:00,
2013-05-30 00:20:00,75.2,63.5,30.09,WSW,255,5.0,9.0,67,0.00,,---,0.00,VWS V14.01,2013-05-30 04:20:00,
2013-05-30 00:22:00,75.2,63.5,30.10,WNW,284,3.0,7.0,67,0.00,,---,0.00,VWS V14.01,2013-05-30 04:22:00,
2013-05-30 00:27:00,75.1,63.4,30.10,WSW,242,6.0,7.0,67,0.00,,---,0.00,VWS V14.01,2013-05-30 04:27:00,
2013-05-30 00:30:00,75.1,63.4,30.10,SW,224,3.0,7.0,67,0.00,,---,0.00,VWS V14.01,2013-05-30 04:30:00,
2013-05-30 00:32:00,75.1,63.4,30.10,WSW,251,1.0,6.0,67,0.00,,---,0.00,VWS V14.01,2013-05-30 04:32:00,
2013-05-30 00:37:00,75.0,63.3,30.10,WSW,256,2.0,6.0,67,0.00,,---,0.00,VWS V14.01,2013-05-30 04:37:00,
2013-05-30 00:40:00,74.9,63.6,30.10,SSW,208,6.0,7.0,68,0.00,,---,0.00,VWS V14.01,2013-05-30 04:40:00,
2013-05-30 00:42:00,74.8,63.5,30.10,WSW,248,3.0,7.0,68,0.00,,---,0.00,VWS V14.01,2013-05-30 04:42:00,
2013-05-30 00:47:00,74.6,63.3,30.10,WSW,255,2.0,8.0,68,0.00,,---,0.00,VWS V14.01,2013-05-30 04:47:00,
2013-05-30 00:50:00,74.6,63.3,30.10,WSW,242,2.0,8.0,68,0.00,,---,0.00,VWS V14.01,2013-05-30 04:50:00,
2013-05-30 00:52:00,74.6,63.3,30.10,West,267,5.0,9.0,68,0.00,,---,0.00,VWS V14.01,2013-05-30 04:52:00,
2013-05-30 00:57:00,74.7,63.5,30.10,WSW,246,0.0,9.0,68,0.00,,---,0.00,VWS V14.01,2013-05-30 04:57:00,
2013-05-30 01:00:00,74.6,63.3,30.10,SW,231,4.0,9.0,68,0.00,,---,0.00,VWS V14.01,2013-05-30 05:00:00,
2013-05-30 01:02:00,74.6,63.3,30.10,WSW,249,2.0,5.0,68,0.00,,---,0.00,VWS V14.01,2013-05-30 05:02:00,
2013-05-30 01:07:00,74.6,63.3,30.10,WSW,255,2.0,5.0,68,0.00,,---,0.00,VWS V14.01,2013-05-30 05:07:00,
2013-05-30 01:10:00,74.5,63.7,30.10,WSW,255,1.0,5.0,69,0.00,,---,0.00,VWS V14.01,2013-05-30 05:10:00,
2013-05-30 01:12:00,74.4,63.6,30.10,SW,219,1.0,2.0,69,0.00,,---,0.00,VWS V14.01,2013-05-30 05:12:00,
2013-05-30 01:17:00,74.2,63.4,30.10,WSW,257,0.0,4.0,69,0.00,,---,0.00,VWS V14.01,2013-05-30 05:17:00,
2013-05-30 01:20:00,74.1,63.3,30.10,WSW,255,1.0,4.0,69,0.00,,---,0.00,VWS V14.01,2013-05-30 05:20:00,
2013-05-30 01:22:00,73.9,63.1,30.10,West,273,1.0,4.0,69,0.00,,---,0.00,VWS V14.01,2013-05-30 05:22:00,
2013-05-30 01:27:00,73.8,63.0,30.11,West,271,1.0,4.0,69,0.00,,---,0.00,VWS V14.01,2013-05-30 05:27:00,
2013-05-30 01:30:00,73.8,63.4,30.11,WSW,253,1.0,4.0,70,0.00,,---,0.00,VWS V14.01,2013-05-30 05:30:00,
2013-05-30 01:32:00,73.6,63.2,30.11,WNW,283,1.0,1.0,70,0.00,,---,0.00,VWS V14.01,2013-05-30 05:32:00,
2013-05-30 01:37:00,73.4,63.0,30.11,WNW,291,1.0,3.0,70,0.00,,---,0.00,VWS V14.01,2013-05-30 05:37:00,
2013-05-30 01:40:00,73.4,63.0,30.11,West,281,2.0,4.0,70,0.00,,---,0.00,VWS V14.01,2013-05-30 05:40:00,
2013-05-30 01:42:00,73.3,62.9,30.11,West,271,1.0,3.0,70,0.00,,---,0.00,VWS V14.01,2013-05-30 05:42:00,
2013-05-30 01:47:00,73.2,63.2,30.11,West,269,2.0,5.0,71,0.00,,---,0.00,VWS V14.01,2013-05-30 05:47:00,
2013-05-30 01:50:00,73.2,63.2,30.11,West,261,1.0,5.0,71,0.00,,---,0.00,VWS V14.01,2013-05-30 05:50:00,
2013-05-30 01:52:00,73.1,63.2,30.11,West,264,1.0,3.0,71,0.00,,---,0.00,VWS V14.01,2013-05-30 05:52:00,
2013-05-30 01:57:00,73.1,63.2,30.11,West,260,1.0,5.0,71,0.00,,---,0.00,VWS V14.01,2013-05-30 05:57:00,
2013-05-30 02:00:00,73.2,63.2,30.11,SW,221,1.0,5.0,71,0.00,,---,0.00,VWS V14.01,2013-05-30 06:00:00,
2013-05-30 02:02:00,73.2,63.2,30.11,West,280,2.0,3.0,71,0.00,,---,0.00,VWS V14.01,2013-05-30 06:02:00,
2013-05-30 02:07:00,73.2,63.2,30.11,WNW,288,1.0,5.0,71,0.00,,---,0.00,VWS V14.01,2013-05-30 06:07:00,
2013-05-30 02:10:00,73.2,63.2,30.11,SW,226,2.0,5.0,71,0.00,,---,0.00,VWS V14.01,2013-05-30 06:10:00,
2013-05-30 02:12:00,73.1,63.2,30.11,WSW,255,0.0,3.0,71,0.00,,---,0.00,VWS V14.01,2013-05-30 06:12:00,
2013-05-30 02:17:00,72.9,63.0,30.12,West,276,1.0,3.0,71,0.00,,---,0.00,VWS V14.01,2013-05-30 06:17:00,
2013-05-30 02:20:00,72.8,62.9,30.12,WNW,285,1.0,3.0,71,0.00,,---,0.00,VWS V14.01,2013-05-30 06:20:00,
2013-05-30 02:22:00,72.6,63.1,30.12,WNW,285,1.0,2.0,72,0.00,,---,0.00,VWS V14.01,2013-05-30 06:22:00,
2013-05-30 02:27:00,72.4,62.9,30.11,West,270,2.0,4.0,72,0.00,,---,0.00,VWS V14.01,2013-05-30 06:27:00,
2013-05-30 02:30:00,72.4,62.9,30.12,WSW,256,0.0,4.0,72,0.00,,---,0.00,VWS V14.01,2013-05-30 06:30:00,
2013-05-30 02:32:00,72.4,62.9,30.11,WSW,255,1.0,2.0,72,0.00,,---,0.00,VWS V14.01,2013-05-30 06:32:00,
2013-05-30 02:37:00,72.3,63.2,30.11,WSW,239,1.0,5.0,73,0.00,,---,0.00,VWS V14.01,2013-05-30 06:37:00,
2013-05-30 02:40:00,72.2,63.1,30.11,WNW,284,1.0,5.0,73,0.00,,---,0.00,VWS V14.01,2013-05-30 06:40:00,
2013-05-30 02:42:00,72.2,63.1,30.11,WSW,241,2.0,2.0,73,0.00,,---,0.00,VWS V14.01,2013-05-30 06:42:00,
2013-05-30 02:47:00,71.9,62.8,30.11,West,264,1.0,2.0,73,0.00,,---,0.00,VWS V14.01,2013-05-30 06:47:00,
2013-05-30 02:50:00,71.9,62.8,30.11,SW,235,0.0,3.0,73,0.00,,---,0.00,VWS V14.01,2013-05-30 06:50:00,
2013-05-30 02:52:00,71.9,62.8,30.11,WSW,258,0.0,1.0,73,0.00,,---,0.00,VWS V14.01,2013-05-30 06:52:00,
2013-05-30 02:57:00,71.6,62.9,30.11,WNW,283,1.0,1.0,74,0.00,,---,0.00,VWS V14.01,2013-05-30 06:57:00,
2013-05-30 03:00:00,71.4,62.7,30.11,WNW,283,0.0,1.0,74,0.00,,---,0.00,VWS V14.01,2013-05-30 07:00:00,
2013-05-30 03:02:00,71.3,62.6,30.11,WNW,284,0.0,1.0,74,0.00,,---,0.00,VWS V14.01,2013-05-30 07:02:00,
2013-05-30 03:07:00,71.0,62.7,30.11,WNW,283,0.0,1.0,75,0.00,,---,0.00,VWS V14.01,2013-05-30 07:07:00,
2013-05-30 03:10:00,70.9,62.6,30.11,WNW,284,0.0,1.0,75,0.00,,---,0.00,VWS V14.01,2013-05-30 07:10:00,
2013-05-30 03:12:00,70.7,62.8,30.11,West,271,0.0,1.0,76,0.00,,---,0.00,VWS V14.01,2013-05-30 07:12:00,
2013-05-30 03:17:00,70.3,62.8,30.11,WNW,298,0.0,1.0,77,0.00,,---,0.00,VWS V14.01,2013-05-30 07:17:00,
2013-05-30 03:20:00,70.2,62.7,30.11,WNW,291,0.0,2.0,77,0.00,,---,0.00,VWS V14.01,2013-05-30 07:20:00,
2013-05-30 03:22:00,70.1,62.6,30.11,WNW,285,0.0,1.0,77,0.00,,---,0.00,VWS V14.01,2013-05-30 07:22:00,
2013-05-30 03:27:00,69.7,62.5,30.11,West,264,0.0,2.0,78,0.00,,---,0.00,VWS V14.01,2013-05-30 07:27:00,
2013-05-30 03:30:00,69.5,62.3,30.11,West,273,0.0,2.0,78,0.00,,---,0.00,VWS V14.01,2013-05-30 07:30:00,
2013-05-30 03:32:00,69.4,62.6,30.11,WSW,257,2.0,2.0,79,0.00,,---,0.00,VWS V14.01,2013-05-30 07:32:00,
2013-05-30 03:37:00,69.4,62.6,30.11,West,273,1.0,2.0,79,0.00,,---,0.00,VWS V14.01,2013-05-30 07:37:00,
2013-05-30 03:40:00,69.4,62.6,30.11,West,278,1.0,2.0,79,0.00,,---,0.00,VWS V14.01,2013-05-30 07:40:00,
2013-05-30 03:42:00,69.4,62.6,30.11,West,271,0.0,1.0,79,0.00,,---,0.00,VWS V14.01,2013-05-30 07:42:00,
2013-05-30 03:47:00,69.4,62.6,30.11,West,270,0.0,1.0,79,0.00,,---,0.00,VWS V14.01,2013-05-30 07:47:00,
2013-05-30 03:50:00,69.4,62.6,30.11,West,270,0.0,1.0,79,0.00,,---,0.00,VWS V14.01,2013-05-30 07:50:00,
2013-05-30 03:52:00,69.4,62.2,30.11,West,278,0.0,1.0,78,0.00,,---,0.00,VWS V14.01,2013-05-30 07:52:00,
2013-05-30 03:57:00,69.2,62.4,30.11,WNW,284,0.0,1.0,79,0.00,,---,0.00,VWS V14.01,2013-05-30 07:57:00,
2013-05-30 04:00:00,68.8,62.0,30.11,East,82,0.0,1.0,79,0.00,,---,0.00,VWS V14.01,2013-05-30 08:00:00,
2013-05-30 04:02:00,68.3,62.2,30.11,East,79,1.0,2.0,81,0.00,,---,0.00,VWS V14.01,2013-05-30 08:02:00,
2013-05-30 04:07:00,67.6,61.9,30.11,ENE,74,1.0,2.0,82,0.00,,---,0.00,VWS V14.01,2013-05-30 08:07:00,
2013-05-30 04:10:00,67.6,62.3,30.11,ENE,74,1.0,2.0,83,0.00,,---,0.00,VWS V14.01,2013-05-30 08:10:00,
2013-05-30 04:12:00,67.3,62.0,30.11,ENE,74,1.0,1.0,83,0.00,,---,0.00,VWS V14.01,2013-05-30 08:12:00,
2013-05-30 04:17:00,66.8,61.8,30.11,East,79,1.0,2.0,84,0.00,,---,0.00,VWS V14.01,2013-05-30 08:17:00,
2013-05-30 04:20:00,66.6,61.6,30.12,East,79,0.0,2.0,84,0.00,,---,0.00,VWS V14.01,2013-05-30 08:20:00,
2013-05-30 04:22:00,66.4,61.8,30.12,East,79,0.0,0.0,85,0.00,,---,0.00,VWS V14.01,2013-05-30 08:22:00,
2013-05-30 04:27:00,66.2,61.9,30.12,East,79,0.0,0.0,86,0.00,,---,0.00,VWS V14.01,2013-05-30 08:27:00,
2013-05-30 04:30:00,66.1,61.8,30.12,East,79,0.0,0.0,86,0.00,,---,0.00,VWS V14.01,2013-05-30 08:30:00,
2013-05-30 04:32:00,66.0,61.7,30.12,East,79,0.0,1.0,86,0.00,,---,0.00,VWS V14.01,2013-05-30 08:32:00,
2013-05-30 04:37:00,65.9,61.6,30.12,ENE,76,0.0,1.0,86,0.00,,---,0.00,VWS V14.01,2013-05-30 08:37:00,
2013-05-30 04:40:00,65.8,61.5,30.12,ENE,76,0.0,1.0,86,0.00,,---,0.00,VWS V14.01,2013-05-30 08:40:00,
2013-05-30 04:42:00,65.5,61.2,30.12,ENE,76,0.0,0.0,86,0.00,,---,0.00,VWS V14.01,2013-05-30 08:42:00,
2013-05-30 04:47:00,65.0,60.7,30.12,ENE,76,0.0,0.0,86,0.00,,---,0.00,VWS V14.01,2013-05-30 08:47:00,
2013-05-30 04:50:00,64.9,60.6,30.12,ENE,77,0.0,0.0,86,0.00,,---,0.00,VWS V14.01,2013-05-30 08:50:00,
2013-05-30 04:52:00,64.7,61.1,30.13,ENE,76,0.0,0.0,88,0.00,,---,0.00,VWS V14.01,2013-05-30 08:52:00,
2013-05-30 04:57:00,64.4,61.1,30.12,ENE,76,0.0,0.0,89,0.00,,---,0.00,VWS V14.01,2013-05-30 08:57:00,
2013-05-30 05:00:00,64.3,61.0,30.12,ENE,76,0.0,0.0,89,0.00,,---,0.00,VWS V14.01,2013-05-30 09:00:00,
2013-05-30 05:03:00,64.2,61.2,30.13,ENE,77,0.0,0.0,90,0.00,,---,0.00,VWS V14.01,2013-05-30 09:03:00,
2013-05-30 05:08:00,64.2,60.9,30.12,ENE,76,0.0,1.0,89,0.00,,---,0.00,VWS V14.01,2013-05-30 09:08:00,
2013-05-30 05:10:00,64.2,61.2,30.13,ENE,76,1.0,1.0,90,0.00,,---,0.00,VWS V14.01,2013-05-30 09:10:00,
2013-05-30 05:13:00,64.1,60.8,30.12,ENE,76,0.0,1.0,89,0.00,,---,0.00,VWS V14.01,2013-05-30 09:13:00,
2013-05-30 05:18:00,63.9,60.9,30.13,ENE,76,0.0,1.0,90,0.00,,---,0.00,VWS V14.01,2013-05-30 09:18:00,
2013-05-30 05:20:00,63.8,60.8,30.13,ENE,76,0.0,1.0,90,0.00,,---,0.00,VWS V14.01,2013-05-30 09:20:00,
2013-05-30 05:23:00,63.6,60.6,30.13,ENE,76,0.0,0.0,90,0.00,,---,0.00,VWS V14.01,2013-05-30 09:23:00,
2013-05-30 05:28:00,63.3,60.6,30.13,ENE,76,0.0,0.0,91,0.00,,---,0.00,VWS V14.01,2013-05-30 09:28:00,
2013-05-30 05:30:00,63.2,60.5,30.13,ENE,76,0.0,0.0,91,0.00,,---,0.00,VWS V14.01,2013-05-30 09:30:00,
2013-05-30 05:33:00,63.1,60.7,30.13,ENE,76,0.0,0.0,92,0.00,,---,0.00,VWS V14.01,2013-05-30 09:33:00,
2013-05-30 05:38:00,63.1,60.7,30.13,ENE,77,0.0,0.0,92,0.00,,---,0.00,VWS V14.01,2013-05-30 09:38:00,
2013-05-30 05:40:00,63.1,60.7,30.13,ENE,77,0.0,0.0,92,0.00,,---,0.00,VWS V14.01,2013-05-30 09:40:00,
2013-05-30 05:43:00,63.1,60.7,30.14,ENE,77,0.0,0.0,92,0.00,,---,0.00,VWS V14.01,2013-05-30 09:43:00,
2013-05-30 05:48:00,63.1,61.0,30.14,ENE,77,0.0,0.0,93,0.00,,---,0.00,VWS V14.01,2013-05-30 09:48:00,
2013-05-30 05:50:00,63.1,61.0,30.14,ENE,77,0.0,0.0,93,0.00,,---,0.00,VWS V14.01,2013-05-30 09:50:00,
2013-05-30 05:53:00,63.0,60.6,30.14,ENE,76,0.0,0.0,92,0.00,,---,0.00,VWS V14.01,2013-05-30 09:53:00,
2013-05-30 05:58:00,63.0,61.0,30.13,ENE,76,0.0,0.0,93,0.00,,---,0.00,VWS V14.01,2013-05-30 09:58:00,
2013-05-30 06:00:00,63.1,61.0,30.14,ENE,76,0.0,0.0,93,0.00,,---,0.00,VWS V14.01,2013-05-30 10:00:00,
2013-05-30 06:03:00,63.5,61.4,30.14,ENE,76,0.0,0.0,93,0.00,,---,0.00,VWS V14.01,2013-05-30 10:03:00,
2013-05-30 06:08:00,64.0,61.3,30.14,ENE,77,0.0,0.0,91,0.00,,---,0.00,VWS V14.01,2013-05-30 10:08:00,
2013-05-30 06:10:00,64.0,61.3,30.14,ENE,77,0.0,0.0,91,0.00,,---,0.00,VWS V14.01,2013-05-30 10:10:00,
2013-05-30 06:13:00,64.1,61.4,30.14,East,84,0.0,1.0,91,0.00,,---,0.00,VWS V14.01,2013-05-30 10:13:00,
2013-05-30 06:18:00,64.4,61.4,30.14,East,83,0.0,1.0,90,0.00,,---,0.00,VWS V14.01,2013-05-30 10:18:00,
2013-05-30 06:20:00,64.3,61.3,30.14,East,84,0.0,1.0,90,0.00,,---,0.00,VWS V14.01,2013-05-30 10:20:00,
2013-05-30 06:23:00,64.5,61.5,30.14,East,83,0.0,0.0,90,0.00,,---,0.00,VWS V14.01,2013-05-30 10:23:00,
2013-05-30 06:28:00,64.7,61.7,30.14,East,84,0.0,0.0,90,0.00,,---,0.00,VWS V14.01,2013-05-30 10:28:00,
2013-05-30 06:30:00,64.7,61.4,30.14,East,84,0.0,0.0,89,0.00,,---,0.00,VWS V14.01,2013-05-30 10:30:00,
2013-05-30 06:33:00,64.7,61.4,30.14,East,84,0.0,0.0,89,0.00,,---,0.00,VWS V14.01,2013-05-30 10:33:00,
2013-05-30 06:38:00,65.0,62.0,30.15,East,84,0.0,0.0,90,0.00,,---,0.00,VWS V14.01,2013-05-30 10:38:00,
2013-05-30 06:40:00,65.1,62.1,30.15,East,83,0.0,0.0,90,0.00,,---,0.00,VWS V14.01,2013-05-30 10:40:00,
2013-05-30 06:43:00,65.8,62.8,30.15,East,83,0.0,0.0,90,0.00,,---,0.00,VWS V14.01,2013-05-30 10:43:00,
2013-05-30 06:48:00,66.9,63.2,30.15,East,83,0.0,0.0,88,0.00,,---,0.00,VWS V14.01,2013-05-30 10:48:00,
2013-05-30 06:50:00,67.1,63.4,30.15,East,84,0.0,0.0,88,0.00,,---,0.00,VWS V14.01,2013-05-30 10:50:00,
2013-05-30 06:53:00,67.6,63.6,30.15,East,84,0.0,0.0,87,0.00,,---,0.00,VWS V14.01,2013-05-30 10:53:00,
2013-05-30 06:58:00,69.1,64.1,30.15,East,84,0.0,0.0,84,0.00,,---,0.00,VWS V14.01,2013-05-30 10:58:00,
2013-05-30 07:00:00,69.2,64.2,30.15,East,84,0.0,0.0,84,0.00,,---,0.00,VWS V14.01,2013-05-30 11:00:00,
2013-05-30 07:03:00,69.6,64.2,30.16,East,84,0.0,0.0,83,0.00,,---,0.00,VWS V14.01,2013-05-30 11:03:00,
2013-05-30 07:08:00,70.1,64.0,30.16,East,84,0.0,0.0,81,0.00,,---,0.00,VWS V14.01,2013-05-30 11:08:00,
2013-05-30 07:10:00,70.1,64.0,30.16,East,83,0.0,0.0,81,0.00,,---,0.00,VWS V14.01,2013-05-30 11:10:00,
2013-05-30 07:13:00,70.1,64.0,30.16,NNW,339,0.0,1.0,81,0.00,,---,0.00,VWS V14.01,2013-05-30 11:13:00,
2013-05-30 07:18:00,71.1,65.0,30.16,NNW,340,0.0,1.0,81,0.00,,---,0.00,VWS V14.01,2013-05-30 11:18:00,
2013-05-30 07:20:00,71.4,65.3,30.16,NNW,340,0.0,1.0,81,0.00,,---,0.00,VWS V14.01,2013-05-30 11:20:00,
2013-05-30 07:23:00,72.7,65.1,30.16,NNW,340,0.0,1.0,77,0.00,,---,0.00,VWS V14.01,2013-05-30 11:23:00,
2013-05-30 07:28:00,73.1,65.5,30.16,NNW,340,0.0,1.0,77,0.00,,---,0.00,VWS V14.01,2013-05-30 11:28:00,
2013-05-30 07:30:00,73.2,65.6,30.16,NNW,340,0.0,1.0,77,0.00,,---,0.00,VWS V14.01,2013-05-30 11:30:00,
2013-05-30 07:33:00,73.9,65.5,30.16,NNW,340,0.0,1.0,75,0.00,,---,0.00,VWS V14.01,2013-05-30 11:33:00,
2013-05-30 07:38:00,73.7,65.3,30.16,NE,43,0.0,1.0,75,0.00,,---,0.00,VWS V14.01,2013-05-30 11:38:00,
2013-05-30 07:40:00,73.7,66.1,30.16,NE,42,0.0,1.0,77,0.00,,---,0.00,VWS V14.01,2013-05-30 11:40:00,
2013-05-30 07:43:00,73.6,65.6,30.15,SE,127,0.0,1.0,76,0.00,,---,0.00,VWS V14.01,2013-05-30 11:43:00,
2013-05-30 07:48:00,73.7,66.1,30.15,ESE,111,0.0,1.0,77,0.00,,---,0.00,VWS V14.01,2013-05-30 11:48:00,
2013-05-30 07:50:00,73.7,66.1,30.15,ESE,111,0.0,1.0,77,0.00,,---,0.00,VWS V14.01,2013-05-30 11:50:00,
2013-05-30 07:53:00,73.9,65.9,30.16,ESE,106,0.0,0.0,76,0.00,,---,0.00,VWS V14.01,2013-05-30 11:53:00,
2013-05-30 07:58:00,74.4,66.0,30.16,SE,140,0.0,1.0,75,0.00,,---,0.00,VWS V14.01,2013-05-30 11:58:00,
2013-05-30 08:00:00,74.4,66.0,30.15,SE,131,1.0,2.0,75,0.00,,---,0.00,VWS V14.01,2013-05-30 12:00:00,
2013-05-30 08:03:00,74.5,66.1,30.16,SE,130,0.0,1.0,75,0.00,,---,0.00,VWS V14.01,2013-05-30 12:03:00,
2013-05-30 08:08:00,75.3,66.4,30.15,SSE,162,0.0,1.0,74,0.00,,---,0.00,VWS V14.01,2013-05-30 12:08:00,
2013-05-30 08:10:00,75.4,66.5,30.15,SSE,161,0.0,1.0,74,0.00,,---,0.00,VWS V14.01,2013-05-30 12:10:00,
2013-05-30 08:13:00,76.4,66.7,30.15,SSE,161,0.0,0.0,72,0.00,,---,0.00,VWS V14.01,2013-05-30 12:13:00,
2013-05-30 08:18:00,77.5,67.8,30.15,SSE,160,0.0,0.0,72,0.00,,---,0.00,VWS V14.01,2013-05-30 12:18:00,
2013-05-30 08:20:00,77.7,67.6,30.15,SSE,161,0.0,0.0,71,0.00,,---,0.00,VWS V14.01,2013-05-30 12:20:00,
2013-05-30 08:23:00,78.8,67.4,30.15,SSE,160,0.0,0.0,68,0.00,,---,0.00,VWS V14.01,2013-05-30 12:23:00,
2013-05-30 08:28:00,79.6,67.2,30.15,SSW,207,0.0,1.0,66,0.00,,---,0.00,VWS V14.01,2013-05-30 12:28:00,
2013-05-30 08:30:00,79.6,67.7,30.15,SSW,207,0.0,1.0,67,0.00,,---,0.00,VWS V14.01,2013-05-30 12:30:00,
2013-05-30 08:33:00,79.8,67.9,30.15,SSW,207,0.0,0.0,67,0.00,,---,0.00,VWS V14.01,2013-05-30 12:33:00,
2013-05-30 08:38:00,80.2,67.8,30.15,SW,226,0.0,0.0,66,0.00,,---,0.00,VWS V14.01,2013-05-30 12:38:00,
2013-05-30 08:40:00,80.2,67.4,30.15,SSW,198,0.0,1.0,65,0.00,,---,0.00,VWS V14.01,2013-05-30 12:40:00,
2013-05-30 08:43:00,79.8,66.6,30.15,SW,233,1.0,4.0,64,0.00,,---,0.00,VWS V14.01,2013-05-30 12:43:00,
2013-05-30 08:48:00,79.7,67.8,30.15,SW,214,1.0,4.0,67,0.00,,---,0.00,VWS V14.01,2013-05-30 12:48:00,
2013-05-30 08:50:00,79.8,67.9,30.15,SW,231,0.0,4.0,67,0.00,,---,0.00,VWS V14.01,2013-05-30 12:50:00,
2013-05-30 08:53:00,79.9,67.5,30.15,SW,229,2.0,4.0,66,0.00,,---,0.00,VWS V14.01,2013-05-30 12:53:00,
2013-05-30 08:58:00,79.9,65.7,30.16,SW,224,4.0,6.0,62,0.00,,---,0.00,VWS V14.01,2013-05-30 12:58:00,
2013-05-30 09:00:00,79.9,65.7,30.16,SW,224,3.0,6.0,62,0.00,,---,0.00,VWS V14.01,2013-05-30 13:00:00,
2013-05-30 09:03:00,79.8,65.6,30.16,SSW,209,4.0,7.0,62,0.00,,---,0.00,VWS V14.01,2013-05-30 13:03:00,
2013-05-30 09:08:00,79.8,64.7,30.16,WSW,242,2.0,7.0,60,0.00,,---,0.00,VWS V14.01,2013-05-30 13:08:00,
2013-05-30 09:10:00,79.9,66.2,30.16,SW,226,4.0,7.0,63,0.00,,---,0.00,VWS V14.01,2013-05-30 13:10:00,
2013-05-30 09:13:00,80.0,64.9,30.16,SSE,165,3.0,5.0,60,0.00,,---,0.00,VWS V14.01,2013-05-30 13:13:00,
2013-05-30 09:18:00,80.1,65.9,30.16,WSW,238,2.0,6.0,62,0.00,,---,0.00,VWS V14.01,2013-05-30 13:18:00,
2013-05-30 09:20:00,80.1,65.9,30.16,SW,221,4.0,6.0,62,0.00,,---,0.00,VWS V14.01,2013-05-30 13:20:00,
2013-05-30 09:23:00,80.3,66.6,30.16,West,264,2.0,4.0,63,0.00,,---,0.00,VWS V14.01,2013-05-30 13:23:00,
2013-05-30 09:28:00,80.8,66.6,30.16,SW,228,2.0,4.0,62,0.00,,---,0.00,VWS V14.01,2013-05-30 13:28:00,
2013-05-30 09:30:00,80.9,66.7,30.16,SSW,203,2.0,4.0,62,0.00,,---,0.00,VWS V14.01,2013-05-30 13:30:00,
2013-05-30 09:34:00,81.4,67.1,30.16,SSW,195,2.0,5.0,62,0.00,,---,0.00,VWS V14.01,2013-05-30 13:34:00,
2013-05-30 09:39:00,81.7,66.0,30.16,West,269,3.0,5.0,59,0.00,,---,0.00,VWS V14.01,2013-05-30 13:39:00,
2013-05-30 09:40:00,81.7,66.0,30.16,West,271,4.0,5.0,59,0.00,,---,0.00,VWS V14.01,2013-05-30 13:40:00,
2013-05-30 09:44:00,81.5,67.2,30.16,WSW,245,4.0,4.0,62,0.00,,---,0.00,VWS V14.01,2013-05-30 13:44:00,
2013-05-30 09:49:00,81.5,66.8,30.16,WSW,246,2.0,4.0,61,0.00,,---,0.00,VWS V14.01,2013-05-30 13:49:00,
2013-05-30 09:50:00,81.5,67.7,30.16,SW,215,2.0,4.0,63,0.00,,---,0.00,VWS V14.01,2013-05-30 13:50:00,
2013-05-30 09:54:00,81.9,67.6,30.16,West,277,1.0,4.0,62,0.00,,---,0.00,VWS V14.01,2013-05-30 13:54:00,
2013-05-30 09:59:00,82.1,66.8,30.16,SW,218,0.0,4.0,60,0.00,,---,0.00,VWS V14.01,2013-05-30 13:59:00,
2013-05-30 10:00:00,82.2,66.5,30.16,South,187,3.0,4.0,59,0.00,,---,0.00,VWS V14.01,2013-05-30 14:00:00,
2013-05-30 10:04:00,82.5,67.2,30.16,SW,236,3.0,5.0,60,0.00,,---,0.00,VWS V14.01,2013-05-30 14:04:00,
2013-05-30 10:09:00,82.5,67.2,30.16,WSW,248,1.0,5.0,60,0.00,,---,0.00,VWS V14.01,2013-05-30 14:09:00,
2013-05-30 10:10:00,82.5,67.2,30.16,SW,229,1.0,5.0,60,0.00,,---,0.00,VWS V14.01,2013-05-30 14:10:00,
2013-05-30 10:14:00,82.7,65.9,30.16,WSW,245,3.0,6.0,57,0.00,,---,0.00,VWS V14.01,2013-05-30 14:14:00,
2013-05-30 10:19:00,82.9,67.6,30.16,SW,214,2.0,6.0,60,0.00,,---,0.00,VWS V14.01,2013-05-30 14:19:00,
2013-05-30 10:20:00,82.9,67.6,30.16,West,270,2.0,6.0,60,0.00,,---,0.00,VWS V14.01,2013-05-30 14:20:00,
2013-05-30 10:24:00,83.1,67.8,30.16,SSE,167,1.0,4.0,60,0.00,,---,0.00,VWS V14.01,2013-05-30 14:24:00,
2013-05-30 10:29:00,83.6,67.3,30.16,SW,221,4.0,5.0,58,0.00,,---,0.00,VWS V14.01,2013-05-30 14:29:00,
2013-05-30 10:30:00,83.6,66.3,30.16,SSW,211,2.0,5.0,56,0.00,,---,0.00,VWS V14.01,2013-05-30 14:30:00,
2013-05-30 10:34:00,83.7,68.3,30.16,SSW,207,4.0,6.0,60,0.00,,---,0.00,VWS V14.01,2013-05-30 14:34:00,
2013-05-30 10:39:00,83.8,65.9,30.16,SW,226,2.0,6.0,55,0.00,,---,0.00,VWS V14.01,2013-05-30 14:39:00,
2013-05-30 10:40:00,83.8,67.0,30.16,SW,222,2.0,6.0,57,0.00,,---,0.00,VWS V14.01,2013-05-30 14:40:00,
2013-05-30 10:44:00,84.2,67.3,30.16,SW,235,2.0,4.0,57,0.00,,---,0.00,VWS V14.01,2013-05-30 14:44:00,
2013-05-30 10:49:00,84.1,67.7,30.16,West,264,2.0,5.0,58,0.00,,---,0.00,VWS V14.01,2013-05-30 14:49:00,
2013-05-30 10:50:00,84.1,67.7,30.16,WSW,242,2.0,5.0,58,0.00,,---,0.00,VWS V14.01,2013-05-30 14:50:00,
2013-05-30 10:54:00,84.3,67.9,30.16,West,277,0.0,3.0,58,0.00,,---,0.00,VWS V14.01,2013-05-30 14:54:00,
2013-05-30 10:59:00,84.8,69.4,30.16,South,180,3.0,4.0,60,0.00,,---,0.00,VWS V14.01,2013-05-30 14:59:00,
2013-05-30 11:00:00,84.9,69.5,30.16,SSE,162,3.0,4.0,60,0.00,,---,0.00,VWS V14.01,2013-05-30 15:00:00,
2013-05-30 11:04:00,85.1,70.6,30.16,East,89,1.0,4.0,62,0.00,,---,0.00,VWS V14.01,2013-05-30 15:04:00,
2013-05-30 11:09:00,85.1,70.2,30.16,WNW,291,2.0,4.0,61,0.00,,---,0.00,VWS V14.01,2013-05-30 15:09:00,
2013-05-30 11:10:00,85.1,70.2,30.16,West,278,2.0,4.0,61,0.00,,---,0.00,VWS V14.01,2013-05-30 15:10:00,
2013-05-30 11:14:00,85.3,69.4,30.16,North,6,2.0,3.0,59,0.00,,---,0.00,VWS V14.01,2013-05-30 15:14:00,
2013-05-30 11:19:00,85.6,72.0,30.16,ESE,104,1.0,3.0,64,0.00,,---,0.00,VWS V14.01,2013-05-30 15:19:00,
2013-05-30 11:20:00,85.7,72.1,30.16,ESE,104,0.0,3.0,64,0.00,,---,0.00,VWS V14.01,2013-05-30 15:20:00,
2013-05-30 11:24:00,86.3,72.2,30.16,SSE,159,2.0,3.0,63,0.00,,---,0.00,VWS V14.01,2013-05-30 15:24:00,
2013-05-30 11:29:00,86.7,72.6,30.16,NNW,340,0.0,3.0,63,0.00,,---,0.00,VWS V14.01,2013-05-30 15:29:00,
2013-05-30 11:30:00,86.6,72.5,30.16,NNE,26,1.0,3.0,63,0.00,,---,0.00,VWS V14.01,2013-05-30 15:30:00,
2013-05-30 11:34:00,86.2,70.7,30.16,East,100,1.0,6.0,60,0.00,,---,0.00,VWS V14.01,2013-05-30 15:34:00,
2013-05-30 11:39:00,85.7,71.7,30.16,ESE,115,1.0,6.0,63,0.00,,---,0.00,VWS V14.01,2013-05-30 15:39:00,
2013-05-30 11:40:00,85.7,71.7,30.16,East,91,3.0,6.0,63,0.00,,---,0.00,VWS V14.01,2013-05-30 15:40:00,
2013-05-30 11:44:00,85.8,71.3,30.16,South,169,2.0,6.0,62,0.00,,---,0.00,VWS V14.01,2013-05-30 15:44:00,
2013-05-30 11:49:00,86.0,71.5,30.15,East,84,6.0,8.0,62,0.00,,---,0.00,VWS V14.01,2013-05-30 15:49:00,
2013-05-30 11:50:00,86.0,71.5,30.15,East,98,7.0,8.0,62,0.00,,---,0.00,VWS V14.01,2013-05-30 15:50:00,
2013-05-30 11:54:00,85.5,71.5,30.15,ESE,105,2.0,7.0,63,0.00,,---,0.00,VWS V14.01,2013-05-30 15:54:00,
2013-05-30 11:59:00,85.3,71.3,30.16,ESE,120,3.0,7.0,63,0.00,,---,0.00,VWS V14.01,2013-05-30 15:59:00,
2013-05-30 12:00:00,85.4,71.4,30.16,ESE,123,2.0,7.0,63,0.00,,---,0.00,VWS V14.01,2013-05-30 16:00:00,
2013-05-30 12:04:00,85.8,70.3,30.16,SE,129,3.0,7.0,60,0.00,,---,0.00,VWS V14.01,2013-05-30 16:04:00,
2013-05-30 12:09:00,86.0,70.0,30.15,SW,219,0.0,7.0,59,0.00,,---,0.00,VWS V14.01,2013-05-30 16:09:00,
2013-05-30 12:10:00,86.0,70.0,30.16,SW,219,0.0,7.0,59,0.00,,---,0.00,VWS V14.01,2013-05-30 16:10:00,
2013-05-30 12:14:00,86.2,69.7,30.15,WSW,257,4.0,7.0,58,0.00,,---,0.00,VWS V14.01,2013-05-30 16:14:00,
2013-05-30 12:19:00,85.9,71.4,30.15,SW,217,3.0,7.0,62,0.00,,---,0.00,VWS V14.01,2013-05-30 16:19:00,
2013-05-30 12:20:00,85.9,71.4,30.15,SW,217,3.0,7.0,62,0.00,,---,0.00,VWS V14.01,2013-05-30 16:20:00,
2013-05-30 12:24:00,86.0,70.5,30.15,SSW,193,6.0,8.0,60,0.00,,---,0.00,VWS V14.01,2013-05-30 16:24:00,
2013-05-30 12:29:00,85.8,70.8,30.15,SW,222,5.0,8.0,61,0.00,,---,0.00,VWS V14.01,2013-05-30 16:29:00,
2013-05-30 12:30:00,85.8,70.8,30.15,SW,222,5.0,8.0,61,0.00,,---,0.00,VWS V14.01,2013-05-30 16:30:00,
2013-05-30 12:34:00,85.7,70.2,30.15,South,180,7.0,10.0,60,0.00,,---,0.00,VWS V14.01,2013-05-30 16:34:00,
2013-05-30 12:39:00,85.8,71.8,30.15,SW,215,8.0,10.0,63,0.00,,---,0.00,VWS V14.01,2013-05-30 16:39:00,
2013-05-30 12:40:00,85.8,71.8,30.15,SW,222,9.0,10.0,63,0.00,,---,0.00,VWS V14.01,2013-05-30 16:40:00,
2013-05-30 12:44:00,86.0,71.0,30.15,SE,133,3.0,9.0,61,0.00,,---,0.00,VWS V14.01,2013-05-30 16:44:00,
2013-05-30 12:49:00,86.2,69.7,30.15,SSE,157,4.0,9.0,58,0.00,,---,0.00,VWS V14.01,2013-05-30 16:49:00,
2013-05-30 12:50:00,86.2,69.7,30.15,SSE,157,4.0,9.0,58,0.00,,---,0.00,VWS V14.01,2013-05-30 16:50:00,
2013-05-30 12:54:00,86.5,71.0,30.15,SSW,211,6.0,9.0,60,0.00,,---,0.00,VWS V14.01,2013-05-30 16:54:00,
2013-05-30 12:59:00,86.6,70.6,30.15,ESE,120,4.0,9.0,59,0.00,,---,0.00,VWS V14.01,2013-05-30 16:59:00,
2013-05-30 13:00:00,86.6,70.6,30.14,SE,139,4.0,9.0,59,0.00,,---,0.00,VWS V14.01,2013-05-30 17:00:00,
2013-05-30 13:04:00,86.6,69.1,30.14,SW,219,4.0,7.0,56,0.00,,---,0.00,VWS V14.01,2013-05-30 17:04:00,
2013-05-30 13:09:00,86.9,69.8,30.14,SW,226,3.0,8.0,57,0.00,,---,0.00,VWS V14.01,2013-05-30 17:09:00,
2013-05-30 13:10:00,86.9,69.8,30.14,SW,226,3.0,8.0,57,0.00,,---,0.00,VWS V14.01,2013-05-30 17:10:00,
2013-05-30 13:14:00,87.0,69.9,30.14,SE,131,10.0,10.0,57,0.00,,---,0.00,VWS V14.01,2013-05-30 17:14:00,
2013-05-30 13:19:00,86.8,70.3,30.14,SE,144,3.0,5.0,58,0.00,,---,0.00,VWS V14.01,2013-05-30 17:19:00,
2013-05-30 13:20:00,86.8,70.3,30.14,SE,141,5.0,10.0,58,0.00,,---,0.00,VWS V14.01,2013-05-30 17:20:00,
2013-05-30 13:24:00,86.9,68.3,30.14,ESE,123,4.0,11.0,54,0.00,,---,0.00,VWS V14.01,2013-05-30 17:24:00,
2013-05-30 13:29:00,86.9,67.2,30.14,SE,133,4.0,7.0,52,0.00,,---,0.00,VWS V14.01,2013-05-30 17:29:00,
2013-05-30 13:30:00,86.9,67.2,30.14,SSE,151,7.0,11.0,52,0.00,,---,0.00,VWS V14.01,2013-05-30 17:30:00,
2013-05-30 13:34:00,86.9,68.8,30.14,East,101,2.0,9.0,55,0.00,,---,0.00,VWS V14.01,2013-05-30 17:34:00,
2013-05-30 13:39:00,86.9,66.6,30.14,South,174,4.0,4.0,51,0.00,,---,0.00,VWS V14.01,2013-05-30 17:39:00,
2013-05-30 13:40:00,86.9,66.6,30.14,SE,134,2.0,12.0,51,0.00,,---,0.00,VWS V14.01,2013-05-30 17:40:00,
2013-05-30 13:44:00,86.9,68.8,30.13,SW,219,4.0,9.0,55,0.00,,---,0.00,VWS V14.01,2013-05-30 17:44:00,
2013-05-30 13:49:00,87.0,68.9,30.13,SSE,167,6.0,9.0,55,0.00,,---,0.00,VWS V14.01,2013-05-30 17:49:00,
2013-05-30 13:50:00,87.0,68.9,30.13,South,186,9.0,10.0,55,0.00,,---,0.00,VWS V14.01,2013-05-30 17:50:00,
2013-05-30 13:54:00,87.1,69.0,30.13,SSW,204,7.0,10.0,55,0.00,,---,0.00,VWS V14.01,2013-05-30 17:54:00,
2013-05-30 13:59:00,87.1,68.4,30.13,SE,135,4.0,6.0,54,0.00,,---,0.00,VWS V14.01,2013-05-30 17:59:00,
2013-05-30 14:00:00,87.1,68.4,30.13,SSW,192,6.0,11.0,54,0.00,,---,0.00,VWS V14.01,2013-05-30 18:00:00,
2013-05-30 14:04:00,87.4,68.2,30.13,SSE,153,6.0,10.0,53,0.00,,---,0.00,VWS V14.01,2013-05-30 18:04:00,
2013-05-30 14:09:00,87.5,68.3,30.13,South,176,4.0,5.0,53,0.00,,---,0.00,VWS V14.01,2013-05-30 18:09:00,
2013-05-30 14:10:00,87.5,68.3,30.13,SSE,158,3.0,11.0,53,0.00,,---,0.00,VWS V14.01,2013-05-30 18:10:00,
2013-05-30 14:14:00,87.7,69.5,30.13,SW,235,6.0,9.0,55,0.00,,---,0.00,VWS V14.01,2013-05-30 18:14:00,
2013-05-30 14:19:00,87.5,67.2,30.13,SW,225,7.0,7.0,51,0.00,,---,0.00,VWS V14.01,2013-05-30 18:19:00,
2013-05-30 14:20:00,87.5,67.2,30.13,SSW,200,6.0,9.0,51,0.00,,---,0.00,VWS V14.01,2013-05-30 18:20:00,
2013-05-30 14:24:00,87.7,70.1,30.13,SW,214,4.0,8.0,56,0.00,,---,0.00,VWS V14.01,2013-05-30 18:24:00,
2013-05-30 14:30:00,88.3,67.9,30.13,WSW,253,6.0,6.0,51,0.00,,---,0.00,VWS V14.01,2013-05-30 18:30:00,
2013-05-30 14:35:00,88.0,68.2,30.13,SSW,197,3.0,8.0,52,0.00,,---,0.00,VWS V14.01,2013-05-30 18:35:00,
2013-05-30 14:40:00,88.3,70.1,30.13,South,176,4.0,6.0,55,0.00,,---,0.00,VWS V14.01,2013-05-30 18:40:00,
2013-05-30 14:45:00,88.6,69.3,30.13,SW,222,6.0,8.0,53,0.00,,---,0.00,VWS V14.01,2013-05-30 18:45:00,
2013-05-30 14:50:00,88.4,66.8,30.12,SSE,162,6.0,6.0,49,0.00,,---,0.00,VWS V14.01,2013-05-30 18:50:00,
2013-05-30 14:55:00,88.6,66.4,30.12,SW,215,3.0,9.0,48,0.00,,---,0.00,VWS V14.01,2013-05-30 18:55:00,
2013-05-30 15:00:00,88.9,66.7,30.12,South,184,7.0,7.0,48,0.00,,---,0.00,VWS V14.01,2013-05-30 19:00:00,
2013-05-30 15:05:00,89.1,69.2,30.12,WSW,240,5.0,9.0,52,0.00,,---,0.00,VWS V14.01,2013-05-30 19:05:00,
2013-05-30 15:10:00,89.3,65.8,30.11,West,259,6.0,7.0,46,0.00,,---,0.00,VWS V14.01,2013-05-30 19:10:00,
2013-05-30 15:15:00,89.1,65.6,30.11,SW,229,3.0,10.0,46,0.00,,---,0.00,VWS V14.01,2013-05-30 19:15:00,
2013-05-30 15:20:00,89.1,66.9,30.11,SSW,212,5.0,7.0,48,0.00,,---,0.00,VWS V14.01,2013-05-30 19:20:00,
2013-05-30 15:25:00,89.2,67.0,30.11,SSW,193,8.0,12.0,48,0.00,,---,0.00,VWS V14.01,2013-05-30 19:25:00,
2013-05-30 15:30:00,89.2,65.1,30.11,West,277,6.0,7.0,45,0.00,,---,0.00,VWS V14.01,2013-05-30 19:30:00,
2013-05-30 15:35:00,89.0,64.9,30.11,SW,231,5.0,8.0,45,0.00,,---,0.00,VWS V14.01,2013-05-30 19:35:00,
2013-05-30 15:40:00,89.0,64.3,30.11,WSW,238,3.0,7.0,44,0.00,,---,0.00,VWS V14.01,2013-05-30 19:40:00,
2013-05-30 15:45:00,89.1,64.4,30.11,South,174,2.0,10.0,44,0.00,,---,0.00,VWS V14.01,2013-05-30 19:45:00,
2013-05-30 15:50:00,89.4,63.3,30.11,South,186,5.0,5.0,42,0.00,,---,0.00,VWS V14.01,2013-05-30 19:50:00,
2013-05-30 15:55:00,89.3,63.9,30.11,South,176,5.0,12.0,43,0.00,,---,0.00,VWS V14.01,2013-05-30 19:55:00,
2013-05-30 16:00:00,89.3,64.6,30.11,SSW,196,6.0,6.0,44,0.00,,---,0.00,VWS V14.01,2013-05-30 20:00:00,
2013-05-30 16:05:00,89.2,65.1,30.11,South,172,8.0,10.0,45,0.00,,---,0.00,VWS V14.01,2013-05-30 20:05:00,
2013-05-30 16:10:00,89.2,64.5,30.11,SSW,203,4.0,7.0,44,0.00,,---,0.00,VWS V14.01,2013-05-30 20:10:00,
2013-05-30 16:15:00,89.2,63.8,30.10,SE,136,6.0,9.0,43,0.00,,---,0.00,VWS V14.01,2013-05-30 20:15:00,
2013-05-30 16:20:00,89.4,66.5,30.11,SW,223,4.0,6.0,47,0.00,,---,0.00,VWS V14.01,2013-05-30 20:20:00,
2013-05-30 16:25:00,89.6,67.3,30.10,SW,214,5.0,6.0,48,0.00,,---,0.00,VWS V14.01,2013-05-30 20:25:00,
2013-05-30 16:30:00,89.7,66.2,30.10,SW,233,1.0,3.0,46,0.00,,---,0.00,VWS V14.01,2013-05-30 20:30:00,
2013-05-30 16:35:00,89.6,64.8,30.10,South,170,6.0,10.0,44,0.00,,---,0.00,VWS V14.01,2013-05-30 20:35:00,
2013-05-30 16:40:00,89.3,64.6,30.10,South,191,7.0,10.0,44,0.00,,---,0.00,VWS V14.01,2013-05-30 20:40:00,
2013-05-30 16:45:00,89.1,65.0,30.11,South,180,9.0,12.0,45,0.00,,---,0.00,VWS V14.01,2013-05-30 20:45:00,
2013-05-30 16:50:00,89.0,64.9,30.10,SW,228,6.0,9.0,45,0.00,,---,0.00,VWS V14.01,2013-05-30 20:50:00,
2013-05-30 16:55:00,88.9,63.5,30.10,SSW,193,6.0,10.0,43,0.00,,---,0.00,VWS V14.01,2013-05-30 20:55:00,
2013-05-30 17:00:00,88.9,65.5,30.10,SW,226,3.0,4.0,46,0.00,,---,0.00,VWS V14.01,2013-05-30 21:00:00,
2013-05-30 17:05:00,89.0,64.3,30.10,SSW,203,2.0,7.0,44,0.00,,---,0.00,VWS V14.01,2013-05-30 21:05:00,
2013-05-30 17:10:00,89.2,65.7,30.10,South,170,5.0,7.0,46,0.00,,---,0.00,VWS V14.01,2013-05-30 21:10:00,
2013-05-30 17:15:00,89.1,64.4,30.10,SSW,207,5.0,9.0,44,0.00,,---,0.00,VWS V14.01,2013-05-30 21:15:00,
2013-05-30 17:20:00,88.9,64.8,30.10,SSW,200,8.0,10.0,45,0.00,,---,0.00,VWS V14.01,2013-05-30 21:20:00,
2013-05-30 17:25:00,88.8,63.4,30.10,SSE,158,7.0,10.0,43,0.00,,---,0.00,VWS V14.01,2013-05-30 21:25:00,
2013-05-30 17:30:00,88.8,66.6,30.10,SSW,199,5.0,5.0,48,0.00,,---,0.00,VWS V14.01,2013-05-30 21:30:00,
2013-05-30 17:35:00,88.9,67.3,30.10,SW,214,4.0,12.0,49,0.00,,---,0.00,VWS V14.01,2013-05-30 21:35:00,
2013-05-30 17:40:00,88.7,64.7,30.10,SW,224,5.0,8.0,45,0.00,,---,0.00,VWS V14.01,2013-05-30 21:40:00,
2013-05-30 17:45:00,88.7,65.9,30.10,SSW,212,5.0,8.0,47,0.00,,---,0.00,VWS V14.01,2013-05-30 21:45:00,
2013-05-30 17:50:00,88.6,65.2,30.10,SW,224,5.0,9.0,46,0.00,,---,0.00,VWS V14.01,2013-05-30 21:50:00,
2013-05-30 17:55:00,88.4,65.0,30.10,SE,136,6.0,9.0,46,0.00,,---,0.00,VWS V14.01,2013-05-30 21:55:00,
2013-05-30 18:00:00,88.4,65.0,30.10,SSW,212,5.0,6.0,46,0.00,,---,0.00,VWS V14.01,2013-05-30 22:00:00,
2013-05-30 18:05:00,88.3,64.9,30.10,SSE,166,5.0,8.0,46,0.00,,---,0.00,VWS V14.01,2013-05-30 22:05:00,
2013-05-30 18:10:00,88.3,65.5,30.10,SW,219,5.0,7.0,47,0.00,,---,0.00,VWS V14.01,2013-05-30 22:10:00,
2013-05-30 18:15:00,88.1,64.1,30.10,SW,215,5.0,9.0,45,0.00,,---,0.00,VWS V14.01,2013-05-30 22:15:00,
2013-05-30 18:20:00,87.8,63.8,30.10,WSW,252,4.0,8.0,45,0.00,,---,0.00,VWS V14.01,2013-05-30 22:20:00,
2013-05-30 18:25:00,87.4,63.5,30.10,SW,225,6.0,9.0,45,0.00,,---,0.00,VWS V14.01,2013-05-30 22:25:00,
2013-05-30 18:30:00,87.1,63.8,30.10,SSW,205,6.0,6.0,46,0.00,,---,0.00,VWS V14.01,2013-05-30 22:30:00,
2013-05-30 18:35:00,86.8,64.2,30.10,South,179,0.0,6.0,47,0.00,,---,0.00,VWS V14.01,2013-05-30 22:35:00,
2013-05-30 18:40:00,86.4,65.0,30.10,SSW,204,3.0,4.0,49,0.00,,---,0.00,VWS V14.01,2013-05-30 22:40:00,
2013-05-30 18:45:00,86.2,66.0,30.10,SSW,197,2.0,4.0,51,0.00,,---,0.00,VWS V14.01,2013-05-30 22:45:00,
2013-05-30 18:50:00,86.1,65.3,30.10,SSW,205,2.0,4.0,50,0.00,,---,0.00,VWS V14.01,2013-05-30 22:50:00,
2013-05-30 18:55:00,86.1,65.9,30.10,SSW,207,5.0,5.0,51,0.00,,---,0.00,VWS V14.01,2013-05-30 22:55:00,
2013-05-30 19:00:00,86.1,66.4,30.10,SSW,197,2.0,2.0,52,0.00,,---,0.00,VWS V14.01,2013-05-30 23:00:00,
2013-05-30 19:05:00,86.2,66.0,30.10,SW,221,6.0,6.0,51,0.00,,---,0.00,VWS V14.01,2013-05-30 23:05:00,
2013-05-30 19:10:00,86.0,66.3,30.10,SSE,159,3.0,3.0,52,0.00,,---,0.00,VWS V14.01,2013-05-30 23:10:00,
2013-05-30 19:15:00,86.1,66.4,30.10,SSE,162,2.0,4.0,52,0.00,,---,0.00,VWS V14.01,2013-05-30 23:15:00,
2013-05-30 19:20:00,86.0,67.4,30.10,SW,217,2.0,3.0,54,0.00,,---,0.00,VWS V14.01,2013-05-30 23:20:00,
2013-05-30 19:25:00,86.0,66.9,30.10,SSE,153,6.0,6.0,53,0.00,,---,0.00,VWS V14.01,2013-05-30 23:25:00,
2013-05-30 19:30:00,85.6,66.5,30.11,SSE,165,2.0,6.0,53,0.00,,---,0.00,VWS V14.01,2013-05-30 23:30:00,
2013-05-30 19:35:00,84.9,66.4,30.11,SSW,205,5.0,6.0,54,0.00,,---,0.00,VWS V14.01,2013-05-30 23:35:00,
2013-05-30 19:40:00,84.2,66.3,30.11,SW,222,1.0,2.0,55,0.00,,---,0.00,VWS V14.01,2013-05-30 23:40:00,
2013-05-30 19:45:00,83.4,66.6,30.11,SSW,203,0.0,3.0,57,0.00,,---,0.00,VWS V14.01,2013-05-30 23:45:00,
2013-05-30 19:50:00,82.8,66.0,30.11,SSW,204,0.0,0.0,57,0.00,,---,0.00,VWS V14.01,2013-05-30 23:50:00,
2013-05-30 19:55:00,82.3,66.1,30.11,South,188,0.0,1.0,58,0.00,,---,0.00,VWS V14.01,2013-05-30 23:55:00,
2013-05-30 20:00:00,81.9,66.2,30.11,SE,145,0.0,1.0,59,0.00,,---,0.00,VWS V14.01,2013-05-31 00:00:00,
2013-05-30 20:05:00,81.1,66.4,30.11,SE,129,0.0,1.0,61,0.00,,---,0.00,VWS V14.01,2013-05-31 00:05:00,
2013-05-30 20:10:00,80.2,66.9,30.11,ESE,109,0.0,0.0,64,0.00,,---,0.00,VWS V14.01,2013-05-31 00:10:00,
2013-05-30 20:15:00,79.5,66.3,30.11,SSE,152,0.0,1.0,64,0.00,,---,0.00,VWS V14.01,2013-05-31 00:15:00,
2013-05-30 20:20:00,79.1,66.3,30.11,SSE,152,0.0,1.0,65,0.00,,---,0.00,VWS V14.01,2013-05-31 00:20:00,
2013-05-30 20:21:00,79.0,66.2,30.11,SSE,152,0.0,0.0,65,0.00,,---,0.00,VWS V14.01,2013-05-31 00:21:00,
2013-05-30 20:26:00,78.7,66.4,30.10,ESE,106,0.0,1.0,66,0.00,,---,0.00,VWS V14.01,2013-05-31 00:26:00,
2013-05-30 20:30:00,78.5,66.6,30.11,ESE,114,0.0,1.0,67,0.00,,---,0.00,VWS V14.01,2013-05-31 00:30:00,
2013-05-30 20:31:00,78.5,66.6,30.10,ESE,115,0.0,0.0,67,0.00,,---,0.00,VWS V14.01,2013-05-31 00:31:00,
2013-05-30 20:36:00,78.1,66.7,30.11,ESE,107,1.0,1.0,68,0.00,,---,0.00,VWS V14.01,2013-05-31 00:36:00,
2013-05-30 20:40:00,77.8,66.8,30.11,ESE,103,0.0,1.0,69,0.00,,---,0.00,VWS V14.01,2013-05-31 00:40:00,
2013-05-30 20:41:00,77.7,66.7,30.11,ESE,103,0.0,0.0,69,0.00,,---,0.00,VWS V14.01,2013-05-31 00:41:00,
2013-05-30 20:46:00,77.5,66.9,30.10,East,89,1.0,1.0,70,0.00,,---,0.00,VWS V14.01,2013-05-31 00:46:00,
2013-05-30 20:50:00,77.4,66.9,30.10,East,91,2.0,2.0,70,0.00,,---,0.00,VWS V14.01,2013-05-31 00:50:00,
2013-05-30 20:51:00,77.2,66.7,30.11,East,98,2.0,2.0,70,0.00,,---,0.00,VWS V14.01,2013-05-31 00:51:00,
2013-05-30 20:56:00,76.3,66.6,30.11,ESE,113,2.0,2.0,72,0.00,,---,0.00,VWS V14.01,2013-05-31 00:56:00,
2013-05-30 21:00:00,76.1,66.8,30.11,East,89,1.0,2.0,73,0.00,,---,0.00,VWS V14.01,2013-05-31 01:00:00,
2013-05-30 21:01:00,76.1,66.8,30.11,East,91,1.0,2.0,73,0.00,,---,0.00,VWS V14.01,2013-05-31 01:01:00,
2013-05-30 21:06:00,76.3,66.6,30.11,East,93,0.0,2.0,72,0.00,,---,0.00,VWS V14.01,2013-05-31 01:06:00,
2013-05-30 21:10:00,76.3,66.6,30.11,SE,140,0.0,2.0,72,0.00,,---,0.00,VWS V14.01,2013-05-31 01:10:00,
2013-05-30 21:11:00,76.4,66.7,30.11,SW,232,0.0,1.0,72,0.00,,---,0.00,VWS V14.01,2013-05-31 01:11:00,
2013-05-30 21:16:00,76.2,66.5,30.11,SE,143,0.0,1.0,72,0.00,,---,0.00,VWS V14.01,2013-05-31 01:16:00,
2013-05-30 21:20:00,75.9,66.2,30.11,South,181,0.0,1.0,72,0.00,,---,0.00,VWS V14.01,2013-05-31 01:20:00,
2013-05-30 21:21:00,75.8,66.1,30.11,South,181,0.0,0.0,72,0.00,,---,0.00,VWS V14.01,2013-05-31 01:21:00,
2013-05-30 21:26:00,75.4,66.2,30.11,SSW,193,0.0,0.0,73,0.00,,---,0.00,VWS V14.01,2013-05-31 01:26:00,
2013-05-30 21:30:00,75.3,66.1,30.11,SSW,210,0.0,2.0,73,0.00,,---,0.00,VWS V14.01,2013-05-31 01:30:00,
2013-05-30 21:31:00,75.3,66.1,30.11,SSW,196,0.0,0.0,73,0.00,,---,0.00,VWS V14.01,2013-05-31 01:31:00,
2013-05-30 21:36:00,75.4,66.2,30.11,SSW,205,0.0,2.0,73,0.00,,---,0.00,VWS V14.01,2013-05-31 01:36:00,
2013-05-30 21:40:00,75.5,65.8,30.11,SSW,210,0.0,2.0,72,0.00,,---,0.00,VWS V14.01,2013-05-31 01:40:00,
2013-05-30 21:41:00,75.7,66.0,30.11,SSW,201,0.0,2.0,72,0.00,,---,0.00,VWS V14.01,2013-05-31 01:41:00,
2013-05-30 21:46:00,76.0,65.9,30.11,SSW,210,2.0,4.0,71,0.00,,---,0.00,VWS V14.01,2013-05-31 01:46:00,
2013-05-30 21:50:00,76.1,66.0,30.12,SSW,206,5.0,6.0,71,0.00,,---,0.00,VWS V14.01,2013-05-31 01:50:00,
2013-05-30 21:51:00,76.3,65.8,30.11,SW,226,3.0,5.0,70,0.00,,---,0.00,VWS V14.01,2013-05-31 01:51:00,
2013-05-30 21:56:00,76.6,66.1,30.11,SW,219,2.0,5.0,70,0.00,,---,0.00,VWS V14.01,2013-05-31 01:56:00,
2013-05-30 22:00:00,76.7,65.8,30.12,SW,224,0.0,5.0,69,0.00,,---,0.00,VWS V14.01,2013-05-31 02:00:00,
2013-05-30 22:01:00,76.8,65.9,30.12,SSW,210,3.0,8.0,69,0.00,,---,0.00,VWS V14.01,2013-05-31 02:01:00,
2013-05-30 22:06:00,76.9,66.0,30.12,WSW,242,0.0,8.0,69,0.00,,---,0.00,VWS V14.01,2013-05-31 02:06:00,
2013-05-30 22:10:00,76.7,65.8,30.12,SW,233,1.0,8.0,69,0.00,,---,0.00,VWS V14.01,2013-05-31 02:10:00,
2013-05-30 22:11:00,76.7,65.8,30.12,SW,221,0.0,3.0,69,0.00,,---,0.00,VWS V14.01,2013-05-31 02:11:00,
2013-05-30 22:16:00,76.5,65.6,30.12,SW,225,1.0,4.0,69,0.00,,---,0.00,VWS V14.01,2013-05-31 02:16:00,
2013-05-30 22:20:00,76.5,65.6,30.12,South,186,2.0,4.0,69,0.00,,---,0.00,VWS V14.01,2013-05-31 02:20:00,
2013-05-30 22:21:00,76.4,65.5,30.12,SSW,195,2.0,3.0,69,0.00,,---,0.00,VWS V14.01,2013-05-31 02:21:00,
2013-05-30 22:26:00,76.4,65.5,30.12,SSW,196,2.0,5.0,69,0.00,,---,0.00,VWS V14.01,2013-05-31 02:26:00,
2013-05-30 22:30:00,76.5,65.6,30.12,SSW,210,1.0,5.0,69,0.00,,---,0.00,VWS V14.01,2013-05-31 02:30:00,
2013-05-30 22:31:00,76.6,65.7,30.12,SSW,204,2.0,3.0,69,0.00,,---,0.00,VWS V14.01,2013-05-31 02:31:00,
2013-05-30 22:36:00,76.7,65.8,30.12,SW,235,2.0,9.0,69,0.00,,---,0.00,VWS V14.01,2013-05-31 02:36:00,
2013-05-30 22:40:00,76.7,65.8,30.12,SSW,210,1.0,9.0,69,0.00,,---,0.00,VWS V14.01,2013-05-31 02:40:00,
2013-05-30 22:41:00,76.8,65.9,30.12,WSW,255,2.0,4.0,69,0.00,,---,0.00,VWS V14.01,2013-05-31 02:41:00,
2013-05-30 22:46:00,76.8,65.4,30.12,West,266,1.0,4.0,68,0.00,,---,0.00,VWS V14.01,2013-05-31 02:46:00,
2013-05-30 22:50:00,76.7,65.8,30.12,WSW,238,2.0,4.0,69,0.00,,---,0.00,VWS V14.01,2013-05-31 02:50:00,
2013-05-30 22:51:00,76.7,65.8,30.12,WSW,251,0.0,2.0,69,0.00,,---,0.00,VWS V14.01,2013-05-31 02:51:00,
2013-05-30 22:56:00,76.4,65.5,30.12,West,263,1.0,2.0,69,0.00,,---,0.00,VWS V14.01,2013-05-31 02:56:00,
2013-05-30 23:00:00,76.2,65.7,30.12,WSW,242,0.0,3.0,70,0.00,,---,0.00,VWS V14.01,2013-05-31 03:00:00,
2013-05-30 23:01:00,76.1,65.6,30.12,WSW,257,0.0,1.0,70,0.00,,---,0.00,VWS V14.01,2013-05-31 03:01:00,
2013-05-30 23:06:00,75.9,65.4,30.12,SW,233,1.0,2.0,70,0.00,,---,0.00,VWS V14.01,2013-05-31 03:06:00,
2013-05-30 23:10:00,75.8,65.3,30.12,WSW,241,2.0,3.0,70,0.00,,---,0.00,VWS V14.01,2013-05-31 03:10:00,
2013-05-30 23:11:00,75.8,65.3,30.12,WSW,257,0.0,2.0,70,0.00,,---,0.00,VWS V14.01,2013-05-31 03:11:00,
2013-05-30 23:16:00,75.5,65.4,30.12,WSW,245,0.0,2.0,71,0.00,,---,0.00,VWS V14.01,2013-05-31 03:16:00,
2013-05-30 23:20:00,75.4,65.3,30.12,SW,235,0.0,2.0,71,0.00,,---,0.00,VWS V14.01,2013-05-31 03:20:00,
2013-05-30 23:21:00,75.3,65.3,30.12,West,271,1.0,3.0,71,0.00,,---,0.00,VWS V14.01,2013-05-31 03:21:00,
2013-05-30 23:26:00,75.1,65.5,30.12,SW,235,1.0,3.0,72,0.00,,---,0.00,VWS V14.01,2013-05-31 03:26:00,
2013-05-30 23:30:00,74.8,65.6,30.12,West,276,0.0,3.0,73,0.00,,---,0.00,VWS V14.01,2013-05-31 03:30:00,
2013-05-30 23:31:00,74.7,65.5,30.12,West,272,0.0,3.0,73,0.00,,---,0.00,VWS V14.01,2013-05-31 03:31:00,
2013-05-30 23:37:00,74.4,65.6,30.12,WSW,253,0.0,3.0,74,0.00,,---,0.00,VWS V14.01,2013-05-31 03:37:00,
2013-05-30 23:40:00,74.4,65.6,30.12,WSW,253,0.0,3.0,74,0.00,,---,0.00,VWS V14.01,2013-05-31 03:40:00,
2013-05-30 23:41:00,74.3,65.5,30.12,West,264,0.0,1.0,74,0.00,,---,0.00,VWS V14.01,2013-05-31 03:41:00,
2013-05-30 23:47:00,74.3,65.5,30.13,West,272,2.0,5.0,74,0.00,,---,0.00,VWS V14.01,2013-05-31 03:47:00,
2013-05-30 23:50:00,74.3,65.5,30.12,SW,235,1.0,5.0,74,0.00,,---,0.00,VWS V14.01,2013-05-31 03:50:00,
2013-05-30 23:52:00,74.3,65.5,30.12,WSW,252,1.0,5.0,74,0.00,,---,0.00,VWS V14.01,2013-05-31 03:52:00,
2013-05-30 23:57:00,74.4,65.6,30.12,WSW,251,0.0,5.0,74,0.00,,---,0.00,VWS V14.01,2013-05-31 03:57:00,